Change the Weather History Date:

Tuesday, June 4, 2013

  Actual Average Record
Temperature  
Mean Temperature 80 °F -  
Max Temperature 91 °F 88 °F 100 °F (1998)
Min Temperature 69 °F 69 °F 66 °F (2007)
Cooling Degree Days 15    
Growing Degree Days 30 (Base 50)    
Moisture  
Dew Point 70 °F    
Average Humidity 75    
Maximum Humidity 100    
Minimum Humidity 43    
Precipitation  
Precipitation 0.00 in - - ()
Sea Level Pressure  
Sea Level Pressure 29.86 in    
Wind  
Wind Speed 7 mph (South)    
Max Wind Speed 15 mph    
Max Gust Speed -    
Visibility 9 miles    
Events Fog    
Averages and records for this station are not official NWS values.
T = Trace of Precipitation, MM = Missing Value Source: NWS Daily Summary

Daily Weather History Graph

Daily Weather History Graph

Search for Another Location

Airport or City:

Trip Planner

Search our weather history database for the weather conditions in past years. The results will help you decide how hot, cold, wet, or windy it might be!

Date:

Astronomy

Jun. 04, 2013 Rise Set
Actual Time 6:32 AM CDT 8:30 PM CDT
Civil Twilight 6:05 AM CDT 8:57 PM CDT
Nautical Twilight 5:33 AM CDT 9:29 PM CDT
Astronomical Twilight 4:58 AM CDT 10:04 PM CDT
Moon 3:49 AM CDT (6/4) 5:12 PM CDT (6/4)
Length of Visible Light 14h 51m
Length of Day
13h 57m
Waning Crescent, 14% of the Moon is Illuminated
Jun 4
Waning Crescent
Jun 8
New
Jun 16
First Quarter
Jun 23
Full
Jun 29
Last Quarter

Hourly Weather History & Observations

Time (CDT) Temp. Heat Index Dew Point Humidity Pressure Visibility Wind Dir Wind Speed Gust Speed Precip Events Conditions
1:56 AM 73.4 °F - 71.6 °F 94% 29.88 in 10.0 mi South 6.9 mph - N/A   Clear
6:37 AM 69.8 °F - 69.8 °F 100% 29.89 in 2.0 mi SW 4.6 mph - N/A Fog Mostly Cloudy
6:58 AM 71.1 °F - 71.1 °F 100% 29.87 in 2.0 mi SW 4.6 mph - N/A Fog Overcast
7:34 AM 71.6 °F - 71.6 °F 100% 29.89 in 3.0 mi SSW 4.6 mph - N/A Fog Scattered Clouds
7:58 AM 71.6 °F - 71.6 °F 100% 29.88 in 4.0 mi SSW 4.6 mph - N/A Fog Mostly Cloudy
8:16 AM 71.6 °F - 71.6 °F 100% 29.90 in 10.0 mi SW 6.9 mph - N/A   Mostly Cloudy
8:43 AM 71.6 °F - 71.6 °F 100% 29.91 in 10.0 mi South 8.1 mph - N/A   Scattered Clouds
8:58 AM 73.2 °F - 73.0 °F 99% 29.89 in 10.0 mi South 6.9 mph - N/A   Scattered Clouds
9:58 AM 76.3 °F - 72.5 °F 88% 29.90 in 10.0 mi South 8.1 mph - N/A   Partly Cloudy
10:58 AM 79.2 °F - 72.1 °F 79% 29.91 in 10.0 mi South 5.8 mph - N/A   Partly Cloudy
11:58 AM 81.5 °F 85.7 °F 71.4 °F 71% 29.90 in 10.0 mi Variable 5.8 mph - N/A   Clear
12:58 PM 83.8 °F 88.9 °F 71.4 °F 66% 29.89 in 10.0 mi SE 8.1 mph - N/A   Clear
1:58 PM 85.8 °F 90.4 °F 69.8 °F 59% 29.88 in 10.0 mi SE 9.2 mph - N/A   Scattered Clouds
2:58 PM 88.2 °F 91.3 °F 67.6 °F 50% 29.86 in 10.0 mi SE 8.1 mph - N/A   Clear
3:58 PM 90.0 °F 92.8 °F 66.6 °F 46% 29.84 in 10.0 mi SE 8.1 mph - N/A   Clear
4:58 PM 90.9 °F 93.1 °F 65.7 °F 43% 29.82 in 10.0 mi SE 8.1 mph - N/A   Clear
5:58 PM 91.0 °F 95.2 °F 68.2 °F 47% 29.81 in 10.0 mi South 9.2 mph - N/A   Clear
6:58 PM 89.6 °F 93.9 °F 68.5 °F 50% 29.80 in 10.0 mi SSE 8.1 mph - N/A   Clear
7:58 PM 86.7 °F 89.6 °F 66.9 °F 52% 29.81 in 10.0 mi South 6.9 mph - N/A   Clear
8:58 PM 83.8 °F 86.3 °F 66.6 °F 56% 29.82 in 10.0 mi South 4.6 mph - N/A   Clear
9:39 PM 78.8 °F - 68.0 °F 69% 29.84 in 10.0 mi South 6.9 mph - N/A   Light Drizzle
9:44 PM 78.8 °F - 68.0 °F 69% 29.84 in 10.0 mi South 8.1 mph - N/A   Clear
9:58 PM 77.4 °F - 67.5 °F 71% 29.82 in 10.0 mi SSE 8.1 mph - 0.00 in   Clear
10:58 PM 77.2 °F - 71.8 °F 83% 29.83 in 10.0 mi SSE 15.0 mph - N/A   Clear
11:58 PM 74.3 °F - 70.3 °F 87% 29.86 in 10.0 mi SSE 10.4 mph - N/A   Clear